Wind_Speed
3 4 4 4 5 5 6 6 6 6 6 7 8 9 9 10 10 11 11 11 12 13 13 13 14 14 15 15 15 16 15 15 15 15 15 15 15 14 14 13 13 13 13 13
4 5 6 6 6 7 7 8 8 8 8 9 10 11 11 11 12 12 13 13 13 14 15 15 15 15 16 16 17 17 17 17 17 16 16 16 16 15 15 14 14 14 14 13
6 7 8 8 8 9 10 10 10 10 11 11 12 12 13 14 14 15 15 15 15 16 16 17 17 17 17 17 18 18 18 18 18 18 18 18 17 17 16 15 15 15 14 14
9 10 11 10 11 12 12 13 13 13 13 14 14 15 15 16 16 17 17 17 17 18 18 18 18 19 19 19 19 19 19 19 19 19 19 19 19 18 18 17 16 16 16 15
11 12 13 13 13 14 14 15 15 16 16 17 17 18 18 19 19 19 20 20 19 20 21 21 21 21 21 20 20 20 20 21 21 21 21 20 20 20 19 19 18 18 17 17
14 15 15 14 15 16 17 17 17 18 19 20 20 20 21 21 22 22 23 23 23 23 23 24 24 24 24 23 23 23 23 23 23 23 23 23 22 22 22 21 20 20 19 18
17 17 17 17 17 18 19 19 20 21 21 22 23 24 24 24 25 25 26 26 27 27 27 27 27 27 27 26 26 26 26 26 26 26 25 25 25 24 24 23 23 22 22 21
19 20 20 20 20 21 22 23 23 23 24 25 26 26 27 27 27 28 28 29 29 30 30 30 30 30 30 30 30 29 29 28 28 28 28 28 28 27 26 26 25 24 24 23
21 22 23 23 23 24 24 25 25 26 27 28 29 29 30 30 30 31 31 32 32 33 33 33 33 33 33 33 33 33 32 32 31 31 30 30 30 30 29 28 28 27 26 25
24 25 26 26 27 27 28 29 29 30 31 31 32 33 34 34 35 35 36 36 36 36 36 36 36 37 37 37 37 36 36 36 35 34 33 33 33 33 32 31 30 30 29 28
28 29 30 30 31 31 32 33 34 35 35 36 37 38 39 39 39 40 40 41 41 41 41 41 41 40 41 41 40 39 39 39 39 38 37 36 35 35 35 34 33 32 32 31
31 32 33 33 34 35 36 37 39 40 40 41 42 42 43 43 44 44 44 45 45 45 45 45 45 45 44 44 44 43 42 41 41 40 39 38 38 37 36 36 36 35 35 34
36 36 37 37 38 39 40 41 42 43 44 44 45 46 47 47 47 48 48 49 49 49 49 49 48 48 48 48 47 46 45 44 43 42 42 40 40 39 38 38 38 38 37 36
39 40 40 41 42 42 43 44 45 46 47 47 48 49 49 50 50 50 50 50 51 51 51 50 50 50 50 49 48 48 47 47 45 44 44 43 42 42 41 41 40 40 39 39
42 43 44 45 46 46 47 47 48 48 49 49 50 50 51 51 52 52 52 52 52 51 51 51 51 50 50 50 49 49 49 49 48 47 46 45 45 44 44 43 43 42 42 41
45 46 47 48 48 49 50 50 50 51 51 51 51 52 52 52 52 52 52 52 52 52 52 51 51 50 50 50 50 50 50 50 49 48 48 47 47 46 46 45 45 44 43 42
48 49 49 50 50 51 51 52 52 52 52 52 53 53 53 53 53 53 53 54 54 53 53 52 51 51 50 50 50 50 50 50 50 49 49 48 48 47 47 46 46 45 45 44
50 51 51 52 52 52 52 53 53 54 54 54 55 55 55 55 55 55 55 55 55 54 53 52 52 51 51 51 50 50 49 49 49 49 49 48 48 48 48 48 47 47 46 45
51 52 52 52 53 54 54 55 55 55 56 56 57 57 56 56 56 56 56 55 55 54 53 52 52 51 50 50 49 49 48 48 48 48 48 48 48 48 48 48 48 47 47 46
52 52 53 53 54 54 55 55 56 56 56 57 57 56 56 56 55 55 55 55 54 54 53 52 51 50 49 49 49 48 48 48 48 47 47 47 47 47 47 47 48 47 47 47
53 54 54 54 55 55 55 56 56 56 56 56 56 56 55 55 54 54 54 54 53 52 52 51 50 49 48 47 47 47 47 48 48 47 46 47 46 45 45 46 46 46 46 46
54 54 55 55 55 55 55 55 55 55 55 55 55 55 55 54 54 53 52 52 50 50 49 49 48 47 46 46 45 45 46 47 47 47 46 46 45 44 44 45 45 45 45 45
54 55 55 55 55 55 55 54 54 54 54 53 53 53 52 52 51 51 49 49 49 48 48 47 47 47 46 45 44 44 44 45 45 45 45 45 44 44 43 44 43 44 45 45
56 56 56 55 55 55 54 54 53 54 53 53 52 52 52 51 50 50 49 48 48 48 47 46 45 45 45 45 44 43 43 43 44 44 45 45 44 43 43 42 42 42 42 43
57 56 56 55 55 54 54 53 53 52 51 51 50 51 51 50 49 48 48 47 46 46 45 45 44 44 44 43 43 43 42 42 42 42 41 42 42 42 41 42 41 40 40 41
54 54 53 53 53 53 52 52 51 50 50 49 48 47 47 46 46 45 44 43 43 43 42 41 41 41 41 40 40 40 40 41 41 41 40 40 40 40 40 39 40 39 39 40
52 52 51 51 51 50 50 49 49 48 47 46 45 45 45 44 43 42 41 41 40 39 39 38 38 38 38 37 37 36 36 37 37 37 37 37 38 38 38 38 39 38 38 39
Wind_Direction
242 252 261 270 273 275 278 278 276 273 274 278 276 277 279 285 287 288 289 290 289 287 287 288 287 287 288 288 287 288 288 290 292 293 295 299 304 308 312 317 322 326 329 335
262 268 271 275 280 282 284 284 282 280 279 279 279 279 282 285 286 288 289 292 292 290 288 288 287 286 288 289 288 288 287 288 289 291 292 294 297 301 304 307 312 316 319 324
273 273 275 278 282 283 282 281 281 280 279 278 278 280 282 284 286 288 289 289 290 290 289 288 287 287 287 288 287 286 285 285 286 288 289 291 292 294 297 300 303 306 309 313
275 277 279 287 285 283 282 281 280 280 280 279 279 280 283 283 284 285 286 287 287 287 286 287 287 286 287 288 287 286 285 284 284 285 287 288 289 290 291 293 295 298 301 304
278 278 281 285 285 283 282 280 280 281 280 280 280 280 281 282 282 283 284 285 285 285 285 285 285 285 285 286 286 285 285 284 284 284 285 286 286 286 287 288 289 291 293 296
282 281 282 284 281 280 280 279 281 280 280 280 280 280 280 280 281 282 282 283 284 284 284 284 284 284 284 284 284 284 284 283 283 283 283 283 283 283 284 285 285 286 287 289
283 283 283 284 282 279 277 281 282 282 282 281 279 279 279 279 280 281 281 282 282 283 283 282 282 282 282 282 282 282 282 281 281 281 281 281 281 281 281 281 282 283 283 283
283 284 285 284 283 281 280 281 282 283 283 281 280 280 280 280 280 281 281 282 282 281 281 282 282 281 280 280 280 281 281 280 279 278 278 278 278 278 278 278 279 279 279 279
283 284 284 284 283 282 282 283 283 283 284 284 283 282 282 282 281 281 281 282 281 280 280 280 280 280 279 279 278 279 279 278 278 277 277 277 276 276 276 276 276 276 276 276
283 284 285 285 285 284 283 283 284 284 285 286 285 284 284 284 284 283 283 282 282 281 280 279 279 279 279 279 278 277 277 277 277 276 275 275 275 274 274 273 273 274 273 273
282 283 283 284 284 285 285 285 285 286 286 286 286 286 285 285 285 284 283 283 283 282 280 279 278 278 278 278 278 277 276 276 275 275 274 273 272 272 271 270 271 271 271 270
281 281 282 283 284 285 285 285 286 287 287 287 287 287 286 285 284 284 283 283 283 282 281 280 280 278 277 277 277 277 276 275 273 273 272 272 271 270 270 269 269 269 269 269
281 281 282 283 283 283 284 285 285 286 287 287 287 286 286 285 285 284 284 283 282 282 282 280 279 278 278 276 276 275 273 273 271 271 270 270 270 269 268 267 267 267 267 267
281 282 283 283 284 284 285 285 286 286 287 287 287 287 286 286 285 285 284 284 282 282 282 280 279 278 278 276 274 273 272 271 270 269 269 269 268 268 267 266 265 264 264 264
281 282 283 283 284 285 286 286 286 287 287 287 287 287 287 286 286 286 285 284 283 283 282 280 279 278 276 275 273 271 270 270 270 269 268 268 268 267 267 266 265 263 262 262
282 283 284 284 285 286 286 286 286 287 287 287 288 288 287 287 286 286 285 284 283 283 282 281 279 277 276 275 273 271 270 269 269 268 267 267 267 267 266 265 264 263 262 261
283 284 284 285 286 286 287 287 287 287 287 288 288 288 288 287 286 286 285 284 284 283 282 281 280 278 276 275 273 271 270 269 268 267 266 266 266 265 265 264 263 262 262 260
284 284 285 286 286 286 286 286 286 286 287 287 287 287 287 287 286 285 285 284 284 283 283 282 280 278 276 275 273 271 270 268 267 266 266 265 264 264 264 263 262 262 261 260
284 285 285 286 286 286 286 286 286 286 287 287 287 287 286 286 286 286 285 285 284 283 282 282 281 279 276 274 272 270 269 268 267 267 265 264 263 263 262 262 262 261 260 259
285 285 286 286 286 287 287 287 287 287 287 288 288 288 288 287 287 287 287 286 286 285 284 282 281 279 277 275 272 270 268 267 267 266 265 263 262 262 262 262 261 260 260 258
285 286 286 286 287 287 287 288 288 288 288 288 289 288 288 288 288 288 289 288 287 285 283 282 281 279 277 275 271 269 268 267 266 265 264 263 262 261 261 261 260 260 259 257
286 286 287 287 288 288 288 288 288 288 288 288 288 289 289 289 289 289 289 289 288 286 283 281 280 278 276 274 270 268 267 266 265 264 263 263 261 260 260 260 259 259 258 257
286 287 288 288 288 288 288 288 288 288 288 288 288 289 290 290 290 290 290 289 288 286 283 281 280 278 276 272 269 268 267 266 265 263 262 261 260 259 259 260 259 258 258 257
287 287 288 288 288 288 288 288 288 289 288 288 288 289 289 289 289 289 289 288 287 287 284 282 280 278 275 271 269 268 268 267 265 263 261 260 258 258 258 258 258 257 257 257
287 287 288 288 288 288 288 288 289 289 288 288 288 289 289 289 288 288 288 288 288 287 285 282 280 278 276 272 271 270 269 268 267 264 262 260 258 257 257 256 257 257 258 257
287 287 286 287 287 288 288 288 289 289 289 289 288 289 288 288 288 289 289 288 288 287 285 282 280 278 276 274 272 270 268 266 266 265 262 259 257 256 255 255 254 256 257 256
286 286 286 287 287 287 287 288 289 289 289 289 288 288 287 287 287 288 289 289 288 286 284 282 279 278 277 274 271 270 268 266 264 262 259 257 256 256 255 254 253 253 254 254
Height
5820 5821 5821 5821 5822 5822 5822 5822 5822 5823 5823 5823 5822 5822 5822 5821 5821 5820 5819 5818 5817 5817 5816 5815 5814 5813 5813 5812 5811 5810 5809 5808 5807 5806 5805 5803 5802 5800 5798 5796 5793 5791 5789 5787
5819 5819 5819 5819 5820 5820 5820 5820 5820 5820 5821 5820 5819 5819 5819 5818 5818 5817 5816 5815 5814 5813 5812 5811 5811 5810 5809 5808 5807 5806 5805 5804 5803 5802 5801 5800 5799 5797 5795 5793 5791 5789 5787 5785
5818 5818 5818 5818 5818 5817 5817 5817 5818 5817 5818 5817 5816 5816 5815 5815 5814 5813 5813 5812 5811 5810 5809 5808 5807 5806 5805 5804 5803 5802 5801 5800 5799 5798 5797 5796 5795 5793 5792 5790 5789 5787 5785 5783
5815 5816 5815 5818 5815 5815 5814 5814 5814 5814 5813 5813 5813 5812 5812 5811 5810 5809 5808 5807 5806 5805 5804 5804 5803 5802 5801 5799 5798 5797 5796 5795 5794 5793 5793 5792 5790 5789 5788 5787 5785 5784 5782 5780
5812 5812 5812 5812 5811 5811 5810 5810 5810 5809 5809 5809 5808 5808 5807 5806 5805 5804 5803 5802 5801 5800 5799 5798 5797 5796 5795 5794 5793 5792 5791 5790 5789 5788 5787 5786 5785 5784 5783 5782 5781 5780 5778 5777
5809 5808 5808 5810 5807 5806 5807 5806 5805 5804 5804 5803 5803 5803 5802 5801 5799 5799 5798 5797 5796 5794 5793 5792 5791 5790 5790 5789 5787 5786 5785 5784 5783 5782 5782 5781 5780 5779 5778 5777 5776 5775 5774 5772
5804 5803 5803 5804 5803 5802 5802 5802 5800 5799 5798 5798 5797 5797 5796 5794 5793 5792 5791 5790 5789 5788 5787 5786 5785 5784 5783 5782 5781 5780 5779 5777 5776 5775 5775 5774 5773 5772 5771 5771 5770 5769 5768 5767
5798 5798 5800 5797 5796 5796 5796 5794 5793 5793 5792 5791 5790 5789 5788 5787 5786 5785 5784 5783 5781 5780 5779 5778 5776 5776 5775 5774 5773 5772 5771 5770 5769 5768 5767 5766 5765 5765 5764 5763 5763 5762 5761 5761
5793 5794 5792 5790 5790 5789 5788 5787 5786 5785 5784 5783 5782 5781 5780 5779 5778 5776 5775 5774 5772 5771 5770 5768 5767 5766 5765 5764 5763 5762 5761 5761 5760 5759 5758 5757 5757 5756 5756 5755 5755 5754 5754 5753
5786 5785 5784 5783 5782 5781 5780 5779 5778 5776 5775 5774 5773 5771 5770 5769 5768 5766 5765 5763 5762 5760 5759 5758 5756 5755 5754 5753 5752 5751 5751 5750 5749 5749 5748 5747 5747 5746 5746 5746 5746 5745 5745 5745
5778 5777 5776 5775 5773 5772 5771 5769 5768 5767 5765 5764 5762 5761 5759 5758 5756 5754 5753 5751 5749 5748 5747 5745 5744 5743 5742 5740 5739 5739 5738 5738 5737 5737 5736 5735 5735 5735 5735 5735 5735 5736 5736 5736
5769 5768 5766 5766 5764 5762 5761 5759 5757 5756 5754 5752 5750 5748 5747 5745 5743 5741 5739 5738 5736 5734 5733 5731 5730 5729 5728 5727 5726 5725 5725 5724 5723 5723 5723 5723 5723 5723 5723 5724 5724 5724 5725 5725
5758 5757 5756 5755 5753 5751 5750 5748 5746 5744 5742 5739 5737 5735 5732 5731 5729 5727 5725 5723 5721 5719 5718 5716 5715 5714 5712 5711 5710 5710 5710 5709 5709 5709 5709 5709 5709 5710 5710 5711 5711 5712 5712 5713
5746 5745 5744 5743 5741 5739 5737 5735 5733 5730 5728 5725 5723 5720 5717 5715 5713 5711 5709 5707 5705 5703 5702 5700 5699 5697 5696 5694 5694 5694 5694 5694 5694 5695 5695 5695 5695 5696 5696 5697 5698 5698 5700 5700
5734 5733 5731 5729 5728 5725 5723 5721 5718 5716 5713 5710 5707 5705 5702 5699 5697 5695 5692 5690 5688 5686 5684 5683 5682 5680 5679 5677 5677 5677 5677 5678 5678 5679 5679 5680 5680 5681 5682 5682 5684 5685 5686 5687
5721 5719 5717 5715 5713 5711 5708 5706 5703 5701 5698 5695 5692 5689 5686 5683 5681 5678 5675 5673 5671 5669 5667 5665 5664 5663 5662 5661 5660 5660 5660 5661 5661 5662 5663 5663 5664 5665 5666 5667 5668 5669 5671 5673
5707 5705 5703 5701 5698 5696 5693 5690 5687 5684 5682 5679 5676 5673 5670 5667 5664 5661 5659 5656 5654 5651 5649 5647 5646 5645 5644 5643 5643 5643 5643 5643 5644 5645 5646 5647 5648 5649 5650 5651 5652 5654 5656 5657
5692 5690 5687 5685 5682 5680 5677 5674 5671 5668 5665 5662 5659 5656 5653 5650 5647 5644 5641 5638 5636 5634 5632 5630 5628 5627 5626 5625 5625 5625 5626 5626 5627 5628 5629 5630 5631 5632 5633 5635 5636 5638 5640 5642
5676 5674 5671 5669 5666 5663 5660 5657 5654 5651 5648 5644 5641 5638 5635 5632 5629 5626 5623 5620 5618 5616 5615 5612 5610 5609 5608 5608 5607 5608 5608 5609 5610 5611 5612 5613 5614 5615 5617 5619 5620 5622 5624 5626
5660 5658 5655 5652 5649 5646 5643 5640 5637 5634 5630 5627 5624 5621 5618 5615 5611 5608 5605 5603 5600 5598 5596 5594 5593 5591 5591 5590 5590 5590 5591 5592 5593 5594 5595 5596 5598 5599 5601 5603 5604 5606 5608 5610
5644 5642 5639 5636 5633 5630 5627 5623 5620 5617 5614 5610 5607 5604 5601 5598 5595 5591 5588 5586 5584 5580 5578 5576 5575 5574 5574 5573 5573 5573 5574 5575 5577 5578 5579 5580 5582 5583 5585 5587 5588 5590 5592 5595
5627 5625 5622 5619 5616 5614 5610 5607 5603 5600 5597 5593 5590 5586 5583 5581 5578 5575 5571 5568 5566 5563 5561 5559 5558 5557 5556 5556 5556 5557 5558 5559 5560 5561 5563 5564 5566 5568 5570 5571 5573 5575 5577 5580
5611 5608 5605 5602 5599 5597 5594 5590 5586 5583 5580 5576 5573 5569 5566 5563 5560 5557 5555 5553 5549 5547 5544 5543 5541 5540 5540 5539 5540 5541 5542 5543 5544 5546 5547 5549 5551 5553 5555 5556 5558 5560 5563 5565
5594 5592 5589 5585 5582 5579 5577 5574 5570 5567 5563 5560 5557 5553 5550 5547 5545 5542 5539 5536 5534 5531 5529 5527 5526 5525 5524 5524 5524 5525 5526 5527 5529 5530 5532 5534 5536 5538 5540 5542 5544 5546 5549 5551
5577 5574 5572 5569 5566 5563 5560 5557 5554 5551 5547 5544 5542 5538 5534 5531 5529 5527 5524 5521 5518 5515 5514 5512 5510 5509 5509 5509 5509 5510 5511 5512 5513 5515 5517 5519 5521 5523 5526 5528 5530 5533 5535 5537
5560 5558 5555 5552 5549 5546 5543 5541 5538 5535 5532 5529 5527 5524 5520 5517 5514 5511 5509 5506 5503 5501 5499 5497 5496 5495 5494 5494 5495 5495 5497 5498 5499 5501 5503 5505 5507 5510 5512 5514 5517 5520 5522 5524
5544 5542 5539 5537 5534 5530 5527 5525 5522 5520 5517 5514 5512 5509 5506 5503 5500 5497 5495 5493 5490 5488 5485 5484 5483 5482 5482 5482 5482 5482 5483 5484 5486 5487 5489 5492 5494 5496 5499 5501 5504 5507 5509 5512